When you browse on this site, cookies collect data to enhance your experience and personalize the content and advertising you see.
Visit our Privacy Policy to learn more. By continuing to use the site, you agree to this use of cookies and data.
  • En España
  • Lista de países
  • Para 7 días
  • Temperatura del agua
  • Mapa Satelital
  • El tiempo en el mapa
  • Informadores
  • user-avatar
    Iniciar sesión

    Tiempo cada hora Bliznaki

    Hoy, 22 Mayo, Miércoles

    Tiempo Temperatura Precipitaciones Viento Presión Humedad
    00:00 +14°C° 0 mm 2 mps 739 mmHg 92%
    01:00 +14°C° 0 mm 2 mps 739 mmHg 93%
    02:00 +13°C° 0 mm 1 mps 738 mmHg 93%
    03:00 +13°C° 0 mm 1 mps 738 mmHg 93%
    04:00 +14°C° 0 mm 2 mps 738 mmHg 92%
    05:00 +14°C° 0 mm 2 mps 738 mmHg 91%
    06:00 +16°C° 0 mm 2 mps 737 mmHg 86%
    07:00 +17°C° 0 mm 2 mps 737 mmHg 80%
    08:00 +19°C° 0 mm 2 mps 737 mmHg 72%
    09:00 +20°C° 0 mm 2 mps 737 mmHg 69%
    10:00 +21°C° 0 mm 2 mps 737 mmHg 66%
    11:00 +23°C° 0 mm 2 mps 737 mmHg 62%
    12:00 +23°C° 0.8 mm 2 mps 736 mmHg 63%
    13:00 +23°C° 0.8 mm 2 mps 736 mmHg 64%
    14:00 +24°C° 0.8 mm 2 mps 736 mmHg 65%
    15:00 +23°C° 1.1 mm 2 mps 736 mmHg 67%
    16:00 +23°C° 1.1 mm 2 mps 735 mmHg 69%
    17:00 +23°C° 1.1 mm 1 mps 735 mmHg 72%
    18:00 +21°C° 0.6 mm 1 mps 735 mmHg 76%
    19:00 +20°C° 0.6 mm 1 mps 735 mmHg 81%
    20:00 +18°C° 0.6 mm 1 mps 735 mmHg 85%
    21:00 +18°C° 0 mm 1 mps 735 mmHg 86%
    22:00 +16°C° 0 mm 1 mps 734 mmHg 87%
    23:00 +16°C° 0 mm 1 mps 734 mmHg 88%

    Mañana, 23 Mayo, Jueves

    Tiempo Temperatura Precipitaciones Viento Presión Humedad
    00:00 +15°C° 0 mm 1 mps 734 mmHg 89%
    01:00 +15°C° 0 mm 1 mps 734 mmHg 90%
    02:00 +14°C° 0 mm 1 mps 734 mmHg 90%
    03:00 +14°C° 0 mm 1 mps 734 mmHg 90%
    04:00 +15°C° 0 mm 2 mps 734 mmHg 90%
    05:00 +15°C° 0 mm 2 mps 734 mmHg 89%
    06:00 +16°C° 0 mm 2 mps 734 mmHg 85%
    07:00 +18°C° 0 mm 2 mps 734 mmHg 80%
    08:00 +20°C° 0 mm 2 mps 734 mmHg 76%
    09:00 +21°C° 0 mm 3 mps 734 mmHg 70%
    10:00 +22°C° 0 mm 3 mps 734 mmHg 65%
    11:00 +25°C° 0 mm 3 mps 734 mmHg 59%
    12:00 +25°C° 0.2 mm 4 mps 734 mmHg 60%
    13:00 +25°C° 0.2 mm 4 mps 734 mmHg 61%
    14:00 +25°C° 0.2 mm 4 mps 734 mmHg 62%
    15:00 +23°C° 0.5 mm 4 mps 733 mmHg 66%
    16:00 +24°C° 0.5 mm 3 mps 733 mmHg 69%
    17:00 +24°C° 0.5 mm 2 mps 733 mmHg 73%
    18:00 +21°C° 0.1 mm 2 mps 733 mmHg 78%
    19:00 +20°C° 0.1 mm 2 mps 733 mmHg 82%
    20:00 +18°C° 0.1 mm 2 mps 733 mmHg 87%
    21:00 +17°C° 0 mm 2 mps 734 mmHg 89%
    22:00 +16°C° 0 mm 1 mps 734 mmHg 90%
    23:00 +16°C° 0 mm 1 mps 734 mmHg 92%

    Pasado mañana, 24 Mayo, Viernes

    Tiempo Temperatura Precipitaciones Viento Presión Humedad
    00:00 +15°C° 0 mm 1 mps 734 mmHg 93%
    01:00 +15°C° 0 mm 1 mps 734 mmHg 94%
    02:00 +14°C° 0 mm 2 mps 734 mmHg 95%
    03:00 +14°C° 0 mm 2 mps 735 mmHg 96%
    04:00 +14°C° 0 mm 2 mps 735 mmHg 96%
    05:00 +13°C° 0 mm 3 mps 735 mmHg 97%
    06:00 +14°C° 0 mm 3 mps 735 mmHg 94%
    07:00 +16°C° 0 mm 3 mps 735 mmHg 92%
    08:00 +16°C° 0 mm 3 mps 736 mmHg 89%
    09:00 +17°C° 0 mm 3 mps 736 mmHg 87%
    10:00 +17°C° 0 mm 3 mps 736 mmHg 85%
    11:00 +18°C° 0 mm 3 mps 736 mmHg 82%
    12:00 +18°C° 0 mm 3 mps 736 mmHg 81%
    13:00 +19°C° 0 mm 3 mps 736 mmHg 79%
    14:00 +19°C° 0 mm 3 mps 736 mmHg 78%
    15:00 +19°C° 0 mm 3 mps 735 mmHg 78%
    16:00 +19°C° 0 mm 3 mps 735 mmHg 78%
    17:00 +20°C° 0 mm 3 mps 735 mmHg 78%
    18:00 +18°C° 0.2 mm 3 mps 735 mmHg 83%
    19:00 +17°C° 0.2 mm 3 mps 735 mmHg 88%
    20:00 +16°C° 0.2 mm 2 mps 735 mmHg 92%
    21:00 +16°C° 0.5 mm 3 mps 735 mmHg 94%
    22:00 +14°C° 0.5 mm 3 mps 735 mmHg 95%
    23:00 +14°C° 0.5 mm 3 mps 735 mmHg 96%

    25 Mayo, Sábado

    Tiempo Temperatura Precipitaciones Viento Presión Humedad
    00:00 +14°C° 0.6 mm 3 mps 734 mmHg 97%
    01:00 +13°C° 0.6 mm 3 mps 734 mmHg 97%
    02:00 +14°C° 0.6 mm 2 mps 734 mmHg 98%
    03:00 +14°C° 0.1 mm 2 mps 734 mmHg 97%
    04:00 +15°C° 0.1 mm 2 mps 733 mmHg 97%
    05:00 +15°C° 0.1 mm 2 mps 733 mmHg 97%
    06:00 +15°C° 0.1 mm 2 mps 733 mmHg 95%
    07:00 +16°C° 0.1 mm 2 mps 733 mmHg 93%
    08:00 +16°C° 0.1 mm 1 mps 733 mmHg 92%
    09:00 +18°C° 0.5 mm 1 mps 733 mmHg 89%
    10:00 +19°C° 0.5 mm 1 mps 733 mmHg 86%
    11:00 +20°C° 0.5 mm 1 mps 732 mmHg 84%
    12:00 +20°C° 1.1 mm 1 mps 732 mmHg 84%
    13:00 +20°C° 1.1 mm 1 mps 732 mmHg 85%
    14:00 +20°C° 1.1 mm 1 mps 732 mmHg 85%
    15:00 +20°C° 0.6 mm 1 mps 731 mmHg 86%
    16:00 +19°C° 0.6 mm 1 mps 731 mmHg 87%
    17:00 +18°C° 0.6 mm 2 mps 731 mmHg 87%
    18:00 +17°C° 0.1 mm 2 mps 731 mmHg 89%
    19:00 +16°C° 0.1 mm 2 mps 731 mmHg 91%
    20:00 +15°C° 0.1 mm 1 mps 731 mmHg 93%
    21:00 +15°C° 0 mm 2 mps 731 mmHg 93%
    22:00 +13°C° 0 mm 3 mps 731 mmHg 92%
    23:00 +12°C° 0 mm 3 mps 731 mmHg 92%

    26 Mayo, Domingo

    Tiempo Temperatura Precipitaciones Viento Presión Humedad
    00:00 +11°C° 0 mm 3 mps 731 mmHg 93%
    01:00 +11°C° 0 mm 3 mps 732 mmHg 94%
    02:00 +10°C° 0 mm 2 mps 732 mmHg 96%
    03:00 +10°C° 0 mm 2 mps 732 mmHg 96%
    04:00 +9°C° 0 mm 2 mps 732 mmHg 95%
    05:00 +9°C° 0 mm 3 mps 733 mmHg 95%
    06:00 +10°C° 0 mm 3 mps 733 mmHg 90%
    07:00 +12°C° 0 mm 3 mps 733 mmHg 85%
    08:00 +13°C° 0 mm 3 mps 733 mmHg 80%
    09:00 +14°C° 0 mm 3 mps 733 mmHg 74%
    10:00 +15°C° 0 mm 4 mps 733 mmHg 67%
    11:00 +17°C° 0 mm 4 mps 733 mmHg 61%
    12:00 +18°C° 0 mm 4 mps 733 mmHg 60%
    13:00 +18°C° 0 mm 4 mps 733 mmHg 59%
    14:00 +19°C° 0 mm 5 mps 732 mmHg 58%
    15:00 +18°C° 0.1 mm 4 mps 732 mmHg 60%
    16:00 +18°C° 0.1 mm 4 mps 732 mmHg 62%
    17:00 +18°C° 0.1 mm 4 mps 732 mmHg 64%
    18:00 +16°C° 0 mm 3 mps 732 mmHg 73%
    19:00 +14°C° 0 mm 2 mps 732 mmHg 82%
    20:00 +12°C° 0 mm 2 mps 732 mmHg 91%
    21:00 +12°C° 0.1 mm 2 mps 732 mmHg 91%
    22:00 +12°C° 0.1 mm 2 mps 732 mmHg 91%
    23:00 +11°C° 0.1 mm 3 mps 731 mmHg 91%

    27 Mayo, Lunes

    Tiempo Temperatura Precipitaciones Viento Presión Humedad
    00:00 +11°C° 0.2 mm 3 mps 731 mmHg 92%
    01:00 +10°C° 0.2 mm 3 mps 731 mmHg 93%
    02:00 +9°C° 0.2 mm 3 mps 731 mmHg 94%
    03:00 +9°C° 0.1 mm 3 mps 731 mmHg 94%
    04:00 +7°C° 0.1 mm 4 mps 731 mmHg 95%
    05:00 +7°C° 0.1 mm 4 mps 731 mmHg 95%
    06:00 +8°C° 0.1 mm 5 mps 732 mmHg 89%
    07:00 +8°C° 0.1 mm 6 mps 732 mmHg 83%
    08:00 +9°C° 0.1 mm 6 mps 732 mmHg 77%
    09:00 +9°C° 0.2 mm 7 mps 733 mmHg 75%
    10:00 +10°C° 0.2 mm 7 mps 733 mmHg 72%
    11:00 +10°C° 0.2 mm 7 mps 733 mmHg 70%
    12:00 +10°C° 0.1 mm 7 mps 734 mmHg 72%
    13:00 +10°C° 0.1 mm 7 mps 734 mmHg 74%
    14:00 +10°C° 0.1 mm 7 mps 734 mmHg 76%
    15:00 +10°C° 0 mm 6 mps 735 mmHg 75%
    16:00 +11°C° 0 mm 6 mps 735 mmHg 74%
    17:00 +11°C° 0 mm 6 mps 736 mmHg 73%
    18:00 +10°C° 0 mm 5 mps 736 mmHg 77%
    19:00 +11°C° 0 mm 4 mps 736 mmHg 81%
    20:00 +10°C° 0 mm 3 mps 737 mmHg 84%
    21:00 +9°C° 0 mm 3 mps 737 mmHg 87%
    22:00 +8°C° 0 mm 3 mps 738 mmHg 90%
    23:00 +7°C° 0 mm 3 mps 738 mmHg 93%
    Mostrar más